TimeCET,TemperatureF,Dew PointF,Humidity,Sea Level PressureIn,VisibilityMPH,Wind Direction,Wind SpeedMPH,Gust SpeedMPH,PrecipitationIn,Events,Conditions,WindDirDegrees,DateUTC
12:00 AM,48.2,44.6,87,29.65,6.2,Calm,Calm,-,N/A,,Scattered Clouds,0,2013-02-21 23:00:00
5:30 AM,44.6,35.6,71,29.56,6.2,North,9.2,-,N/A,,Partly Cloudy,10,2013-02-22 04:30:00
6:00 AM,44.6,33.8,66,29.56,6.2,ENE,3.5,-,N/A,,Partly Cloudy,60,2013-02-22 05:00:00
6:30 AM,44.6,33.8,66,29.59,6.2,Variable,2.3,-,N/A,,Partly Cloudy,0,2013-02-22 05:30:00
7:00 AM,42.8,35.6,76,29.59,6.2,NNW,8.1,-,N/A,,Partly Cloudy,340,2013-02-22 06:00:00
7:30 AM,42.8,35.6,76,29.59,6.2,NNW,9.2,-,N/A,,Scattered Clouds,340,2013-02-22 06:30:00
8:00 AM,42.8,35.6,76,29.59,6.2,NNW,9.2,-,N/A,,Partly Cloudy,340,2013-02-22 07:00:00
8:30 AM,42.8,35.6,76,29.59,6.2,NNW,5.8,-,N/A,,Partly Cloudy,330,2013-02-22 07:30:00
9:00 AM,42.8,37.4,81,29.62,6.2,NNW,8.1,-,N/A,,Partly Cloudy,340,2013-02-22 08:00:00
9:30 AM,42.8,35.6,76,29.62,6.2,NW,8.1,-,N/A,,Partly Cloudy,320,2013-02-22 08:30:00
10:00 AM,44.6,35.6,71,29.62,6.2,North,11.5,-,N/A,,Partly Cloudy,350,2013-02-22 09:00:00
10:30 AM,42.8,33.8,70,29.65,6.2,NW,12.7,-,N/A,,Partly Cloudy,310,2013-02-22 09:30:00
11:00 AM,42.8,33.8,70,29.65,6.2,NW,12.7,-,N/A,,Partly Cloudy,310,2013-02-22 10:00:00
11:30 AM,44.6,33.8,66,29.65,6.2,WNW,13.8,-,N/A,,Partly Cloudy,300,2013-02-22 10:30:00
12:00 PM,42.8,32.0,66,29.65,6.2,WNW,11.5,-,N/A,,Partly Cloudy,300,2013-02-22 11:00:00
12:30 PM,44.6,32.0,61,29.65,6.2,NW,9.2,-,N/A,,Partly Cloudy,310,2013-02-22 11:30:00
1:00 PM,46.4,30.2,53,29.65,6.2,NW,10.4,-,N/A,,Partly Cloudy,320,2013-02-22 12:00:00
2:00 PM,44.6,26.6,49,29.62,-9999.0,NW,10.4,-,N/A,,Clear,310,2013-02-22 13:00:00
2:30 PM,46.4,24.8,43,29.62,-9999.0,NW,11.5,-,N/A,,Clear,310,2013-02-22 13:30:00
3:00 PM,44.6,24.8,46,29.59,-9999.0,NW,10.4,-,N/A,,Clear,320,2013-02-22 14:00:00
4:00 PM,44.6,26.6,49,29.59,-9999.0,NW,8.1,-,N/A,,Clear,310,2013-02-22 15:00:00
4:30 PM,42.8,26.6,53,29.59,6.2,NNW,10.4,-,N/A,,Partly Cloudy,330,2013-02-22 15:30:00
5:00 PM,42.8,28.4,57,29.56,6.2,NNW,9.2,-,N/A,,Partly Cloudy,340,2013-02-22 16:00:00
5:30 PM,42.8,28.4,57,29.56,6.2,NNW,9.2,-,N/A,,Partly Cloudy,330,2013-02-22 16:30:00
6:00 PM,42.8,28.4,57,29.56,6.2,NNW,10.4,-,N/A,,Partly Cloudy,330,2013-02-22 17:00:00
6:30 PM,41.0,28.4,61,29.56,6.2,North,9.2,-,N/A,,Partly Cloudy,350,2013-02-22 17:30:00
7:00 PM,41.0,28.4,61,29.56,6.2,NNW,11.5,-,N/A,,Partly Cloudy,330,2013-02-22 18:00:00
7:30 PM,39.2,28.4,65,29.56,6.2,NNW,12.7,-,N/A,,Partly Cloudy,330,2013-02-22 18:30:00
8:00 PM,37.4,28.4,70,29.56,6.2,NNW,10.4,-,N/A,,Partly Cloudy,340,2013-02-22 19:00:00
8:30 PM,37.4,28.4,70,29.56,6.2,NNW,9.2,-,N/A,,Partly Cloudy,330,2013-02-22 19:30:00
9:00 PM,35.6,28.4,75,29.56,-9999.0,NW,12.7,-,N/A,,Clear,320,2013-02-22 20:00:00
9:30 PM,35.6,28.4,75,29.56,-9999.0,NNW,16.1,-,N/A,,Clear,330,2013-02-22 20:30:00
10:00 PM,35.6,26.6,70,29.56,-9999.0,NW,16.1,-,N/A,,Clear,320,2013-02-22 21:00:00
10:30 PM,33.8,26.6,75,29.56,-9999.0,NW,12.7,-,N/A,,Clear,320,2013-02-22 21:30:00
11:00 PM,33.8,26.6,75,29.56,-9999.0,NW,15.0,-,N/A,,Clear,320,2013-02-22 22:00:00
11:30 PM,33.8,26.6,75,29.59,-9999.0,NNW,15.0,-,N/A,,Clear,330,2013-02-22 22:30:00